Location: Katherine
(14.4670°S, 132.2670°E)
Time: 22:48:54
(UTC+09:30)

ISS - Pass Details

Date: 24 March 2017
Orbit: 399 x 409 km, 51.6° (Epoch: 29 March)

Event Time Altitude Azimuth Distance (km) Brightness Sun altitude
Rises 19:12:01 0° 241° (WSW) 2,309 1.2 -6.4°
Reaches altitude 10° 19:14:35 10° 262° (W) 1,444 0.7 -7.0°
Maximum altitude 19:16:46 17° 304° (NW) 1,103 -0.8 -7.5°
Drops below altitude 10° 19:18:55 10° 347° (NNW) 1,435 -0.9 -8.1°
Sets 19:21:29 0° 8° (N) 2,287 -0.1 -8.7°
